Historique des stations

Station météo de Lucay-le-Mâle

Altitude de la station : 128 m







Données météorologiques pour le 17/01/2021
Date
Heure
Températures Humidité Point de rosée Vitesse
du vent
Direction Rafales Windchill Pression Pluviométrie
Cumul
Date
Heure
Températures Humidité Point de rosée Vitesse
du vent
Direction Rafales Windchill Pression Pluviométrie
Cumul
17/01/2021 12:107.3 °C84 %4.8 °C6 km/hn/a14 km/h7.51026 hPa0.2 mm
17/01/2021 12:007.2 °C87 %5.1 °C8 km/hn/a16 km/h5.51026 hPa0.2 mm
17/01/2021 11:407.1 °C88 %5.2 °C6 km/hn/a14 km/h7.01026 hPa0.2 mm
17/01/2021 11:306.7 °C90 %5.1 °C6 km/hn/a14 km/h6.51026 hPa0.2 mm
17/01/2021 11:106.3 °C90 %4.8 °C5 km/hn/a16 km/h6.51026 hPa0.2 mm
17/01/2021 11:006.1 °C91 %4.7 °C6 km/hn/a11 km/h6.01025 hPa0.2 mm
17/01/2021 10:405.8 °C91 %4.5 °C5 km/hn/a10 km/h6.01025 hPa0.2 mm
17/01/2021 10:305.6 °C92 %4.4 °C3 km/hn/a8 km/h5.51025 hPa0.2 mm
17/01/2021 10:105.4 °C92 %4.2 °C3 km/hn/a8 km/h5.51024 hPa0.2 mm
17/01/2021 10:005.4 °C93 %4.3 °C3 km/hn/a10 km/h5.51025 hPa0.2 mm
17/01/2021 09:405.4 °C93 %4.3 °C5 km/hn/a10 km/h5.51024 hPa0.2 mm
17/01/2021 09:305.3 °C94 %4.4 °C5 km/hn/a10 km/h5.51024 hPa0.2 mm
17/01/2021 09:105.3 °C94 %4.4 °C3 km/hn/a10 km/h5.51024 hPa0.2 mm
17/01/2021 09:005.3 °C94 %4.4 °C5 km/hn/a8 km/h5.51024 hPa0.2 mm
17/01/2021 08:405.3 °C94 %4.4 °C3 km/hn/a8 km/h5.51023 hPa0.2 mm
17/01/2021 08:305.2 °C94 %4.3 °C2 km/hn/a5 km/h5.01023 hPa0.2 mm
17/01/2021 08:105.2 °C94 %4.3 °C3 km/hn/a8 km/h5.01023 hPa0.2 mm
17/01/2021 08:005.3 °C94 %4.4 °C3 km/hn/a6 km/h5.51023 hPa0.2 mm
17/01/2021 07:405.2 °C94 %4.3 °C3 km/hn/a8 km/h5.01023 hPa0.0 mm
17/01/2021 07:305.3 °C94 %4.4 °C5 km/hn/a10 km/h5.51023 hPa0.0 mm
17/01/2021 07:105.3 °C94 %4.4 °C5 km/hn/a10 km/h5.51023 hPa0.0 mm
17/01/2021 07:005.3 °C95 %4.6 °C5 km/hn/a10 km/h5.51023 hPa0.0 mm
17/01/2021 06:405.4 °C95 %4.7 °C5 km/hn/a10 km/h5.51022 hPa0.0 mm
17/01/2021 06:305.3 °C95 %4.6 °C3 km/hn/a11 km/h5.51022 hPa0.0 mm
17/01/2021 06:105.4 °C95 %4.7 °C3 km/hn/a10 km/h5.51022 hPa0.0 mm
17/01/2021 06:005.5 °C95 %4.8 °C5 km/hn/a11 km/h5.51022 hPa0.0 mm
17/01/2021 05:405.6 °C95 %4.8 °C5 km/hn/a13 km/h5.51022 hPa0.0 mm
17/01/2021 05:305.6 °C94 %4.7 °C5 km/hn/a11 km/h5.51022 hPa0.0 mm
17/01/2021 05:105.6 °C95 %4.8 °C5 km/hn/a13 km/h5.51022 hPa0.0 mm
17/01/2021 05:005.4 °C95 %4.7 °C3 km/hn/a8 km/h5.51022 hPa0.0 mm
17/01/2021 04:405.3 °C94 %4.4 °C3 km/hn/a8 km/h5.51022 hPa0.0 mm
17/01/2021 04:305.3 °C94 %4.4 °C3 km/hn/a6 km/h5.51022 hPa0.0 mm
17/01/2021 04:105.2 °C94 %4.3 °C2 km/hn/a3 km/h5.01022 hPa0.0 mm
17/01/2021 04:00-------0 hPa0.0 mm
17/01/2021 03:105.5 °C93 %4.5 °C3 km/hn/a10 km/h5.51022 hPa0.0 mm
17/01/2021 03:105.5 °C93 %4.5 °C3 km/hn/a10 km/h5.51022 hPa0.0 mm
17/01/2021 03:105.5 °C93 %4.5 °C3 km/hn/a10 km/h5.51022 hPa0.0 mm
17/01/2021 03:005.4 °C94 %4.6 °C2 km/hn/a6 km/h5.51022 hPa0.0 mm
17/01/2021 02:405.3 °C94 %4.4 °C2 km/hn/a5 km/h5.51021 hPa0.0 mm
17/01/2021 02:305.7 °C94 %4.8 °C2 km/hn/a6 km/h5.51021 hPa0.0 mm
17/01/2021 02:105.8 °C94 %4.9 °C3 km/hn/a5 km/h6.01021 hPa0.0 mm
17/01/2021 02:005.9 °C94 %5.0 °C3 km/hn/a6 km/h6.01021 hPa0.0 mm
17/01/2021 01:406.1 °C94 %5.2 °C3 km/hn/a6 km/h6.01021 hPa0.0 mm
17/01/2021 01:306.1 °C93 %5.1 °C3 km/hn/a5 km/h6.01021 hPa0.0 mm
17/01/2021 01:10-------0 hPan/a mm
17/01/2021 01:106.1 °C94 %5.2 °C2 km/hn/a6 km/h6.01021 hPa0.0 mm
17/01/2021 01:00-------0 hPan/a mm
17/01/2021 00:106.4 °C95 %5.7 °C2 km/hn/a3 km/h6.51021 hPa8.4 mm
17/01/2021 00:006.5 °C95 %5.8 °C2 km/hn/a8 km/h6.51021 hPa8.4 mm


Minima :

Température : 5.2 °C
Humidité : 84 %
Point de rosée : 4.2 °C
Vent moyen : 2 km/h
Windchill : 5.0
Pression atm. : 0 hPa
Maxima :

Température : 7.3 °C
Humidité : 95 %
Point de rosée : 5.8 °C
Vent moyen : 8 km/h
Windchill : 7.5
Pression atm. : 1026 hPa
Rafales max : 16 km/h
Cumul de pluie sur 24H : 8.4 mm

Lucay-le-Mâle est une commune du département Indre (36).
La station météorologique du réseau de l'association la plus proche de Lucay-le-Mâle est celle de Villegouin



Icône Facebook Association Météo Centre Icône Twitter Association Météo Centre Icône Chaîne Youtube Association Météo Centre Icône contact Association Météo Centre Icône Insta Association Météo Centre